KG6SIB Weather Reports


Display with metric or nautical units.
time (UTC)temp
F
wind
direction
speed
MPH
gust
MPH
rain 1hr
in
rain 24hr
in
rain mn
in
humidity
%
barometer
mb
20170526092120 46 241 2.0 5.0 0.00 0.00 0.00 90 1013.3
20170526091620 47 293 2.0 3.0 0.00 0.00 0.00 90 1013.3
20170526091122 47 254 2.0 5.0 0.00 0.00 0.00 90 1013.3
20170526090620 47 248 3.0 5.0 0.00 0.00 0.00 90 1013.3
20170526090120 47 266 3.0 5.0 0.00 0.00 0.00 89 1013.3
20170526085620 47 264 3.0 5.0 0.00 0.00 0.00 89 1013.4
20170526085119 47 259 3.0 4.0 0.00 0.00 0.00 88 1013.3
20170526084619 47 278 1.0 4.0 0.00 0.00 0.00 87 1013.3
20170526084121 47 234 0.0 4.0 0.00 0.00 0.00 89 1013.2
20170526083619 47 266 2.0 4.0 0.00 0.00 0.00 90 1013.3
20170526083119 47 258 2.0 3.0 0.00 0.00 0.00 90 1013.2
20170526082620 47 248 2.0 3.0 0.00 0.00 0.00 90 1013.2
20170526082118 47 235 0.0 4.0 0.00 0.00 0.00 90 1013.1
20170526081618 47 278 2.0 5.0 0.00 0.00 0.00 90 1013.3
20170526081118 47 218 4.0 5.0 0.00 0.00 0.00 89 1013.3
20170526080650 47 253 1.0 3.0 0.00 0.00 0.00 89 1013.2
20170526080148 47 286 2.0 3.0 0.00 0.00 0.00 90 1013.2
20170526075647 47 230 3.0 5.0 0.00 0.00 0.00 89 1013.2
20170526075148 47 281 3.0 6.0 0.00 0.00 0.00 89 1013.3
20170526074649 47 281 2.0 6.0 0.00 0.00 0.00 89 1013.3
20170526074147 47 265 3.0 3.0 0.00 0.00 0.00 89 1013.3
20170526073649 47 276 2.0 3.0 0.00 0.00 0.00 89 1013.3
20170526073148 47 259 2.0 5.0 0.00 0.00 0.00 88 1013.2
20170526072647 47 251 2.0 6.0 0.00 0.00 0.00 89 1013.3
20170526072146 47 231 4.0 6.0 0.00 0.00 0.00 89 1013.4
20170526071647 47 231 4.0 5.0 0.00 0.00 0.00 90 1013.3
20170526070633 47 264 2.0 5.0 0.00 0.00 0.00 90 1013.2
20170526070132 47 275 2.0 6.0 0.00 0.00 0.00 90 1013.1
20170526065633 47 242 3.0 9.0 0.00 0.00 0.00 90 1013.0
20170526065132 48 285 4.0 9.0 0.00 0.00 0.00 90 1013.0
20170526064632 48 278 2.0 6.0 0.00 0.00 0.00 90 1012.9
20170526064132 48 244 2.0 5.0 0.00 0.00 0.00 90 1012.8
20170526063633 48 229 1.0 5.0 0.00 0.00 0.00 90 1012.8
20170526063132 48 267 3.0 4.0 0.00 0.00 0.00 90 1012.9
20170526062631 48 262 1.0 4.0 0.00 0.00 0.00 90 1012.8
20170526062131 48 245 2.0 4.0 0.00 0.00 0.00 90 1012.7
20170526061633 48 240 3.0 4.0 0.00 0.00 0.00 90 1012.7
20170526061132 48 339 2.0 4.0 0.00 0.00 0.00 90 1012.6
20170526060631 48 278 1.0 4.0 0.00 0.00 0.00 90 1012.6
20170526060131 48 234 1.0 3.0 0.00 0.00 0.00 90 1012.6
20170526055630 48 259 1.0 3.0 0.00 0.00 0.00 90 1012.6
20170526055131 48 210 1.0 3.0 0.00 0.00 0.00 90 1012.5
20170526054632 48 244 2.0 5.0 0.00 0.00 0.00 90 1012.5
20170526054130 48 231 1.0 5.0 0.00 0.00 0.00 90 1012.5
20170526053630 48 226 2.0 4.0 0.00 0.00 0.00 89 1012.5
20170526053131 48 233 2.0 3.0 0.00 0.00 0.00 89 1012.4
20170526052630 48 272 2.0 4.0 0.00 0.00 0.00 89 1012.4
20170526052130 48 269 2.0 4.0 0.00 0.00 0.00 89 1012.3
20170526051630 48 247 0.0 4.0 0.00 0.00 0.00 89 1012.2
20170526051130 48 252 2.0 4.0 0.00 0.00 0.00 89 1012.1
20170526050629 48 267 1.0 4.0 0.00 0.00 0.00 89 1012.1
20170526050129 48 229 1.0 5.0 0.00 0.00 0.00 89 1012.1
20170526045630 48 259 2.0 6.0 0.00 0.00 0.00 89 1012.1
20170526045130 48 219 4.0 6.0 0.00 0.00 0.00 89 1012.0
20170526044630 48 251 3.0 6.0 0.00 0.00 0.00 89 1012.0
20170526044129 48 269 4.0 6.0 0.00 0.00 0.00 89 1011.9
20170526043629 48 253 4.0 6.0 0.00 0.00 0.00 89 1011.9
20170526043128 48 254 2.0 5.0 0.00 0.00 0.00 89 1011.9
20170526042629 48 243 1.0 7.0 0.00 0.00 0.00 88 1011.7
20170526042128 49 244 2.0 8.0 0.00 0.00 0.00 88 1011.8
20170526041631 49 260 3.0 8.0 0.00 0.00 0.00 88 1011.6
20170526041132 49 193 3.0 6.0 0.00 0.00 0.00 88 1011.5
20170526040628 49 235 3.0 6.0 0.00 0.00 0.00 88 1011.4
20170526040127 49 273 1.0 4.0 0.00 0.00 0.00 87 1011.4
20170526035628 49 259 0.0 4.0 0.00 0.00 0.00 87 1011.1
20170526035128 49 268 2.0 3.0 0.00 0.00 0.00 88 1011.0
20170526034627 49 221 1.0 5.0 0.00 0.00 0.00 87 1010.9
20170526034127 49 240 3.0 5.0 0.00 0.00 0.00 87 1010.9
20170526033627 49 225 3.0 4.0 0.00 0.00 0.00 87 1010.9
20170526033126 49 229 2.0 4.0 0.00 0.00 0.00 87 1010.8
20170526032627 49 250 4.0 6.0 0.00 0.00 0.00 87 1010.7
20170526032127 50 153 2.0 6.0 0.00 0.00 0.00 86 1010.7
20170526031627 50 273 3.0 4.0 0.00 0.00 0.00 86 1010.5
20170526030640 50 219 3.0 7.0 0.00 0.00 0.00 86 1010.5
20170526030138 50 231 5.0 6.0 0.00 0.00 0.00 85 1010.4
20170526025639 50 268 2.0 6.0 0.00 0.00 0.00 85 1010.4
20170526025137 50 209 3.0 6.0 0.00 0.00 0.00 85 1010.3
20170526024638 51 238 3.0 5.0 0.00 0.00 0.00 84 1010.4
20170526024138 51 225 2.0 5.0 0.00 0.00 0.00 84 1010.3
20170526023637 51 235 3.0 6.0 0.00 0.00 0.00 84 1010.3
20170526023138 51 251 4.0 6.0 0.00 0.00 0.00 83 1010.4
20170526022637 51 257 3.0 7.0 0.00 0.00 0.00 83 1010.3
20170526022137 51 309 1.0 7.0 0.00 0.00 0.00 83 1010.3
20170526021637 51 227 5.0 7.0 0.00 0.00 0.00 82 1010.3
20170526021138 52 264 5.0 7.0 0.00 0.00 0.00 82 1010.3
20170526020655 52 251 4.0 7.0 0.00 0.00 0.00 82 1010.2
20170526020137 52 233 2.0 9.0 0.00 0.00 0.00 81 1010.2
20170526015636 52 267 5.0 9.0 0.00 0.00 0.00 80 1009.1
20170526015136 52 217 3.0 9.0 0.00 0.00 0.00 81 1009.1
20170526014636 53 294 7.0 9.0 0.00 0.00 0.00 80 1009.2
20170526014136 53 238 8.0 9.0 0.00 0.00 0.00 79 1009.2
20170526013636 53 265 4.0 9.0 0.00 0.00 0.00 79 1009.1
20170526013136 54 240 4.0 10.0 0.00 0.00 0.00 78 1009.1
20170526012635 54 257 7.0 10.0 0.00 0.00 0.00 78 1009.0
20170526012135 55 252 6.0 11.0 0.00 0.00 0.00 76 1009.3
20170526011636 55 220 5.0 11.0 0.00 0.00 0.00 76 1009.2
20170526011135 55 223 6.0 9.0 0.00 0.00 0.00 75 1009.1
20170526010634 56 276 4.0 9.0 0.00 0.00 0.00 75 1009.1
20170526010136 56 199 4.0 9.0 0.00 0.00 0.00 74 1009.1
20170526005635 56 238 5.0 9.0 0.00 0.00 0.00 74 1008.4
20170526005134 57 222 5.0 11.0 0.00 0.00 0.00 71 1008.3
20170526004634 58 311 2.0 11.0 0.00 0.00 0.00 72 1008.6
20170526004135 58 195 4.0 10.0 0.00 0.00 0.00 71 1008.5
20170526003635 58 221 5.0 12.0 0.00 0.00 0.00 71 1008.6
20170526003133 58 230 8.0 12.0 0.00 0.00 0.00 70 1008.5
20170526002635 58 243 5.0 13.0 0.00 0.00 0.00 72 1008.5
20170526002133 58 233 12.0 13.0 0.00 0.00 0.00 70 1008.6
20170526001634 59 230 6.0 11.0 0.00 0.00 0.00 69 1008.6
20170526001135 59 213 9.0 13.0 0.00 0.00 0.00 71 1008.6
20170526000634 59 228 6.0 13.0 0.00 0.00 0.00 70 1008.6
20170526000132 59 244 6.0 11.0 0.00 0.00 0.00 70 1008.5
20170525235632 59 224 7.0 12.0 0.00 0.00 0.00 69 1009.0
20170525235134 60 245 8.0 12.0 0.00 0.00 0.00 67 1009.1
20170525234632 60 248 6.0 11.0 0.00 0.00 0.00 67 1009.1
20170525234132 60 276 9.0 12.0 0.00 0.00 0.00 68 1009.1
20170525233631 60 224 6.0 12.0 0.00 0.00 0.00 67 1009.2
20170525233133 60 236 12.0 12.0 0.00 0.00 0.00 67 1009.1
20170525232632 60 224 4.0 13.0 0.00 0.00 0.00 67 1009.1
20170525232131 60 219 8.0 13.0 0.00 0.00 0.00 67 1009.1
20170525231638 61 232 8.0 11.0 0.00 0.00 0.00 66 1009.3
20170525230642 61 215 8.0 11.0 0.00 0.00 0.00 65 1009.3
20170525230142 61 212 4.0 15.0 0.00 0.00 0.00 65 1009.3
20170525225643 60 255 6.0 15.0 0.00 0.00 0.00 64 1009.0
20170525225143 61 243 10.0 15.0 0.00 0.00 0.00 63 1008.9
20170525224641 61 226 8.0 15.0 0.00 0.00 0.00 64 1008.9
20170525224141 61 228 10.0 11.0 0.00 0.00 0.00 62 1009.0
20170525223642 61 260 8.0 12.0 0.00 0.00 0.00 63 1009.0
20170525223141 61 263 7.0 14.0 0.00 0.00 0.00 63 1009.1
20170525222641 61 216 9.0 14.0 0.00 0.00 0.00 61 1009.1
20170525222141 62 238 3.0 14.0 0.00 0.00 0.00 62 1009.3
20170525221642 62 253 13.0 14.0 0.00 0.00 0.00 61 1009.3
20170525221143 62 213 13.0 14.0 0.00 0.00 0.00 61 1009.3
20170525220640 62 269 8.0 10.0 0.00 0.00 0.00 61 1009.4
20170525220142 62 212 1.0 11.0 0.00 0.00 0.00 59 1009.4
20170525215641 62 246 8.0 13.0 0.00 0.00 0.00 59 1009.6
20170525215140 63 252 5.0 13.0 0.00 0.00 0.00 57 1009.9
20170525214640 62 231 6.0 14.0 0.00 0.00 0.00 61 1009.6
20170525214140 62 240 7.0 14.0 0.00 0.00 0.00 60 1009.7
20170525213640 63 235 8.0 8.0 0.00 0.00 0.00 60 1009.9
20170525213140 63 260 6.0 14.0 0.00 0.00 0.00 59 1009.8
20170525212640 62 253 2.0 14.0 0.00 0.00 0.00 61 1009.6
20170525212139 62 278 5.0 12.0 0.00 0.00 0.00 59 1009.7
20170525211639 63 217 10.0 12.0 0.00 0.00 0.00 59 1009.9
20170525211140 62 236 10.0 12.0 0.00 0.00 0.00 60 1009.7
20170525210639 62 234 6.0 11.0 0.00 0.00 0.00 61 1009.7
20170525210139 62 267 6.0 10.0 0.00 0.00 0.00 61 1009.7
20170525205638 62 259 3.0 10.0 0.00 0.00 0.00 60 1010.2
20170525205139 63 236 4.0 11.0 0.00 0.00 0.00 58 1010.3
20170525204638 62 191 6.0 11.0 0.00 0.00 0.00 58 1010.3
20170525204139 63 245 9.0 11.0 0.00 0.00 0.00 61 1010.2
20170525203638 62 250 2.0 10.0 0.00 0.00 0.00 58 1010.3
20170525203138 62 254 7.0 12.0 0.00 0.00 0.00 58 1010.3
20170525202638 62 228 2.0 12.0 0.00 0.00 0.00 61 1010.3
20170525202137 63 226 6.0 10.0 0.00 0.00 0.00 60 1010.4
20170525201637 62 195 3.0 11.0 0.00 0.00 0.00 60 1010.3
20170525201137 61 235 4.0 11.0 0.00 0.00 0.00 61 1009.9
20170525200637 61 268 7.0 13.0 0.00 0.00 0.00 60 1010.0
20170525200137 61 257 1.0 13.0 0.00 0.00 0.00 62 1010.3
20170525195636 61 221 2.0 11.0 0.00 0.00 0.00 62 1010.4
20170525195136 61 250 5.0 11.0 0.00 0.00 0.00 63 1010.5
20170525194637 61 198 3.0 12.0 0.00 0.00 0.00 65 1010.4
20170525194137 61 223 5.0 13.0 0.00 0.00 0.00 65 1010.4
20170525193637 61 257 12.0 13.0 0.00 0.00 0.00 66 1010.5
20170525193137 61 201 2.0 12.0 0.00 0.00 0.00 65 1010.6
20170525192636 60 214 6.0 12.0 0.00 0.00 0.00 67 1010.5
20170525192136 60 208 7.0 11.0 0.00 0.00 0.00 66 1010.5
20170525191635 60 223 6.0 11.0 0.00 0.00 0.00 67 1010.6
20170525190640 60 250 4.0 14.0 0.00 0.00 0.00 67 1010.5
20170525190141 60 266 3.0 14.0 0.00 0.00 0.00 69 1010.5
20170525185640 60 220 12.0 13.0 0.00 0.00 0.00 67 1010.5
20170525185140 60 188 4.0 10.0 0.00 0.00 0.00 68 1010.4
20170525184639 60 243 7.0 12.0 0.00 0.00 0.00 68 1010.3
20170525184140 60 225 8.0 12.0 0.00 0.00 0.00 69 1010.3
20170525183640 59 186 4.0 11.0 0.00 0.00 0.00 69 1010.3
20170525183141 59 203 7.0 11.0 0.00 0.00 0.00 70 1010.2
20170525182640 59 274 9.0 11.0 0.00 0.00 0.00 70 1010.1
20170525182139 58 248 2.0 11.0 0.00 0.00 0.00 71 1010.0
20170525181641 58 289 4.0 11.0 0.00 0.00 0.00 71 1009.9
20170525181139 58 238 3.0 11.0 0.00 0.00 0.00 69 1009.8
20170525180638 58 237 10.0 11.0 0.00 0.00 0.00 72 1009.8
20170525180139 58 262 6.0 12.0 0.00 0.00 0.00 71 1009.7
20170525175638 58 262 3.0 12.0 0.00 0.00 0.00 71 1009.8
20170525175139 58 204 8.0 12.0 0.00 0.00 0.00 71 1009.8
20170525174638 58 229 7.0 12.0 0.00 0.00 0.00 71 1009.8
20170525174138 58 240 9.0 12.0 0.00 0.00 0.00 70 1009.8
20170525173638 58 239 6.0 12.0 0.00 0.00 0.00 70 1009.8
20170525173137 58 233 8.0 13.0 0.00 0.00 0.00 71 1009.7
20170525172639 58 202 10.0 13.0 0.00 0.00 0.00 70 1009.7
20170525172138 59 213 6.0 11.0 0.00 0.00 0.00 69 1009.8
20170525171637 58 245 7.0 11.0 0.00 0.00 0.00 69 1009.6
20170525171138 58 207 6.0 11.0 0.00 0.00 0.00 70 1009.5
20170525170638 58 247 4.0 9.0 0.00 0.00 0.00 69 1009.5
20170525170136 58 231 5.0 8.0 0.00 0.00 0.00 69 1009.4
20170525165636 58 259 6.0 10.0 0.00 0.00 0.00 69 1009.6
20170525165137 58 248 7.0 10.0 0.00 0.00 0.00 69 1009.6
20170525164636 57 217 7.0 9.0 0.00 0.00 0.00 70 1009.6
20170525164137 57 208 6.0 8.0 0.00 0.00 0.00 68 1009.6
20170525163637 57 243 6.0 8.0 0.00 0.00 0.00 67 1009.5
20170525163137 57 200 3.0 8.0 0.00 0.00 0.00 70 1009.5
20170525162637 56 234 8.0 10.0 0.00 0.00 0.00 70 1009.2
20170525162136 56 263 3.0 10.0 0.00 0.00 0.00 69 1009.2
20170525161635 55 153 1.0 7.0 0.00 0.00 0.00 70 1009.3
20170525161136 55 203 2.0 8.0 0.00 0.00 0.00 72 1009.3
20170525160635 54 244 5.0 9.0 0.00 0.00 0.00 71 1009.0
20170525160136 55 269 6.0 9.0 0.00 0.00 0.00 70 1009.3
20170525155636 55 203 4.0 7.0 0.00 0.00 0.00 72 1009.2
20170525155135 54 204 2.0 8.0 0.00 0.00 0.00 71 1009.0
20170525154634 54 183 2.0 8.0 0.00 0.00 0.00 72 1009.0
20170525154134 54 175 2.0 6.0 0.00 0.00 0.00 72 1008.9
20170525153636 53 208 3.0 6.0 0.00 0.00 0.00 73 1008.9
20170525153135 53 188 3.0 6.0 0.00 0.00 0.00 74 1008.9
20170525152634 53 213 5.0 7.0 0.00 0.00 0.00 73 1008.9
20170525152133 53 150 1.0 7.0 0.00 0.00 0.00 75 1008.8
20170525151634 53 210 3.0 6.0 0.00 0.00 0.00 74 1008.8
20170525150621 55 217 5.0 5.0 0.00 0.00 0.00 64 1008.8
20170525150150 55 208 1.0 1.0 0.00 0.00 0.00 61 1008.7
20170525145621 54 125 0.0 1.0 0.00 0.00 0.00 63 1009.2
20170525145120 54 162 0.0 1.0 0.00 0.00 0.00 65 1009.3
20170525144620 52 200 0.0 1.0 0.00 0.00 0.00 68 1009.2
20170525144120 52 140 0.0 1.0 0.00 0.00 0.00 70 1009.3
20170525143619 51 137 0.0 1.0 0.00 0.00 0.00 71 1009.2
20170525143119 51 159 0.0 1.0 0.00 0.00 0.00 73 1009.3
20170525142620 50 158 0.0 1.0 0.00 0.00 0.00 74 1009.2
20170525142121 49 130 0.0 1.0 0.00 0.00 0.00 71 1008.9
20170525141619 48 94 1.0 1.0 0.00 0.00 0.00 69 1008.9
20170525141119 47 90 0.0 1.0 0.00 0.00 0.00 71 1008.6
20170525140618 46 90 0.0 1.0 0.00 0.00 0.00 72 1008.5
20170525140119 45 321 0.0 1.0 0.00 0.00 0.00 73 1008.3
20170525135620 44 321 0.0 1.0 0.00 0.00 0.00 71 1009.3
20170525135118 43 58 0.0 2.0 0.00 0.00 0.00 72 1009.3
20170525134619 42 58 1.0 3.0 0.00 0.00 0.00 70 1008.9
20170525134118 41 40 2.0 5.0 0.00 0.00 0.00 75 1008.8
20170525133618 39 39 2.0 6.0 0.00 0.00 0.00 78 1008.6
20170525133117 38 46 5.0 6.0 0.00 0.00 0.00 79 1008.4
20170525132617 37 30 4.0 5.0 0.00 0.00 0.00 79 1008.3
20170525132118 37 44 3.0 4.0 0.00 0.00 0.00 78 1008.3
20170525131619 37 34 1.0 4.0 0.00 0.00 0.00 79 1008.3
20170525131117 38 34 2.0 3.0 0.00 0.00 0.00 79 1008.3
20170525130617 38 52 2.0 4.0 0.00 0.00 0.00 76 1008.2
20170525130147 38 48 2.0 4.0 0.00 0.00 0.00 79 1008.1
20170525125617 37 22 3.0 5.0 0.00 0.00 0.00 80 1008.3
20170525125116 37 42 3.0 6.0 0.00 0.00 0.00 81 1008.2
20170525124616 37 41 4.0 6.0 0.00 0.00 0.00 79 1008.3
20170525124148 37 36 6.0 6.0 0.00 0.00 0.00 78 1008.3
20170525123647 37 48 5.0 5.0 0.00 0.00 0.00 77 1008.3
20170525123148 38 36 5.0 5.0 0.00 0.00 0.00 75 1008.6
20170525122646 38 51 4.0 5.0 0.00 0.00 0.00 76 1008.5
20170525122147 39 53 4.0 4.0 0.00 0.00 0.00 74 1008.4
20170525121646 40 36 2.0 5.0 0.00 0.00 0.00 77 1008.7
20170525121147 39 34 3.0 5.0 0.00 0.00 0.00 76 1008.2
20170525120646 40 33 4.0 5.0 0.00 0.00 0.00 75 1008.5
20170525120146 41 100 1.0 1.0 0.00 0.00 0.00 77 1008.5
20170525115647 41 188 0.0 2.0 0.00 0.00 0.00 73 1008.9
20170525115146 42 188 0.0 2.0 0.00 0.00 0.00 68 1008.9
20170525114647 43 189 0.0 6.0 0.00 0.00 0.00 61 1009.1
20170525114146 43 74 0.0 7.0 0.00 0.00 0.00 46 1008.8
20170525113645 43 46 5.0 7.0 0.00 0.00 0.00 48 1008.9
20170525113146 42 33 6.0 7.0 0.00 0.00 0.00 49 1008.6
20170525112644 41 49 6.0 7.0 0.00 0.00 0.00 52 1008.7
20170525112144 40 18 3.0 6.0 0.00 0.00 0.00 58 1008.4
20170525111645 39 75 4.0 7.0 0.00 0.00 0.00 61 1008.5
20170525110625 40 50 4.0 5.0 0.00 0.00 0.00 74 1008.6
20170525110124 40 56 5.0 5.0 0.00 0.00 0.00 68 1008.6
20170525105624 41 39 4.0 5.0 0.00 0.00 0.00 67 1008.8
20170525105124 42 161 0.0 0.0 0.00 0.00 0.00 73 1009.0
20170525104624 42 162 0.0 0.0 0.00 0.00 0.00 70 1009.0
20170525104123 43 162 0.0 2.0 0.00 0.00 0.00 57 1008.9
20170525103624 44 161 0.0 3.0 0.00 0.00 0.00 50 1009.0
20170525103123 44 30 1.0 3.0 0.00 0.00 0.00 47 1008.9
20170525102623 44 77 1.0 5.0 0.00 0.00 0.00 49 1008.9
20170525102122 44 36 1.0 5.0 0.00 0.00 0.00 47 1009.1
20170525101622 45 46 1.0 5.0 0.00 0.00 0.00 46 1009.0
20170525101123 44 60 0.0 5.0 0.00 0.00 0.00 48 1009.1
20170525100623 44 12 3.0 6.0 0.00 0.00 0.00 49 1009.1
20170525100122 43 56 5.0 8.0 0.00 0.00 0.00 51 1008.8
20170525095622 43 70 4.0 8.0 0.00 0.00 0.00 53 1009.0
20170525095123 42 54 6.0 7.0 0.00 0.00 0.00 56 1008.9
20170525094623 41 37 5.0 5.0 0.00 0.00 0.00 57 1008.9
20170525094121 41 39 4.0 5.0 0.00 0.00 0.00 61 1009.0
20170525093621 41 46 2.0 4.0 0.00 0.00 0.00 65 1009.0
20170525093122 42 43 4.0 4.0 0.00 0.00 0.00 63 1009.0
20170525092622 43 40 2.0 3.0 0.00 0.00 0.00 75 1009.4